AEROCUBE 5B

Last updated on Thu Nov 24 2022 00:03:47 GMT+0000 (Coordinated Universal Time)

1 39466U 13072E 22327.02650540 .14105350 13584-4 61661-2 0 9995 2 39466 120.4246 307.2558 0017896 140.2326 220.0109 16.21475205175097

Satellite not in orbit

AEROCUBE 5B